Location: Marcé
(47.5801°N, 0.3280°W)
Time: 09:03:09
(UTC+01:00)

Vanguard 1 - Pass Details

Date: 01 December 2021
Orbit: 652 x 3830 km, 34.2° (Epoch: 24 January)

Event Time Altitude Azimuth Distance (km) Brightness Sun altitude
Rises 00:26:02 0° 214° (SW) 7,355 - -63.8°
Reaches altitude 10° 00:31:18 10° 207° (SSW) 6,609 - -63.9°
Maximum altitude 00:50:50 38° 149° (SSE) 4,922 - -64.2°
Exits shadow 01:04:59 18° 99° (E) 5,636 13.8 -64.1°
Drops below altitude 10° 01:08:35 10° 91° (E) 6,082 14.1 -64.0°
Sets 01:13:05 0° 84° (E) 6,746 14.4 -63.8°
